Location: Eastview
(35.0756°N, 88.5453°W)
Time: 05:20:45
(UTC+00:00)

COSMO-SKYMED 1 - Pass Details

Date: 22 November 2019
Orbit: 621 x 623 km, 97.9° (Epoch: 05 December)

Event Time Altitude Azimuth Distance (km) Brightness Sun altitude
Rises 23:21:48 0° 22° (NNE) 2,905 5.6 -7.8°
Reaches altitude 10° 23:24:10 10° 32° (NNE) 1,994 4.7 -8.3°
Maximum altitude 23:28:07 34° 98° (E) 1,025 3.2 -9.1°
Drops below altitude 10° 23:32:03 10° 164° (SSE) 1,982 5.2 -9.8°
Sets 23:34:23 0° 173° (S) 2,883 6.1 -10.3°
